EW570PP UMMS-LYTV

Flight info

Callsign EW570PP
Flight time N/A
Altitude 43000
Route OSMUS2F OSMUS Z369 BRT L856 TOSPO/N0505F430 Z367 KEFIR DCT KEKED DCT PARAK/N0509F410 DCT BGD/N0510F430 DCT POD
Aircraft C750/M-SBDE3FGHRWXY/S

Departure

Time 2026-05-01 15:19
Airport Minsk National Airport (UMMS)

Arrival

Time N/A
Airport Tivat Airport (LYTV)
Time Latitude Longitude Altitude Speed Heading
2026-05-01 14:37 53.89669 28.01532 673 ft 0 kts
2026-05-01 15:02 53.89656 28.01531 673 ft 1 kts
2026-05-01 15:02 53.89653 28.01531 673 ft 1 kts 349°
2026-05-01 15:02 53.89639 28.01554 673 ft 2 kts 302°
2026-05-01 15:02 53.89633 28.01569 673 ft 2 kts 321°
2026-05-01 15:03 53.89622 28.01586 673 ft 2 kts 318°
2026-05-01 15:03 53.89612 28.01600 673 ft 0 kts 318°
2026-05-01 15:03 53.89612 28.01601 673 ft 0 kts 318°
2026-05-01 15:09 53.89612 28.01600 673 ft 0 kts 318°
2026-05-01 15:09 53.89622 28.01568 673 ft 6 kts 263°
2026-05-01 15:10 53.89585 28.01500 673 ft 7 kts 199°
2026-05-01 15:10 53.89422 28.01716 673 ft 24 kts 142°
2026-05-01 15:10 53.89292 28.01906 673 ft 24 kts 139°
2026-05-01 15:11 53.89161 28.02099 673 ft 25 kts 140°
2026-05-01 15:11 53.88900 28.02485 673 ft 26 kts 139°
2026-05-01 15:11 53.88759 28.02697 673 ft 26 kts 137°
2026-05-01 15:12 53.88619 28.02904 673 ft 26 kts 138°
2026-05-01 15:12 53.88390 28.03267 673 ft 7 kts 97°
2026-05-01 15:12 53.88411 28.03344 673 ft 7 kts 44°
2026-05-01 15:13 53.88676 28.03853 673 ft 25 kts 46°
2026-05-01 15:14 53.88939 28.04366 673 ft 29 kts 49°
2026-05-01 15:14 53.89075 28.04631 673 ft 30 kts 46°
2026-05-01 15:14 53.89160 28.04957 673 ft 10 kts 137°
2026-05-01 15:15 53.88937 28.05288 673 ft 33 kts 138°
2026-05-01 15:15 53.88761 28.05549 673 ft 25 kts 138°
2026-05-01 15:16 53.88650 28.05831 673 ft 0 kts 34°
2026-05-01 15:16 53.88658 28.05841 673 ft 3 kts 34°
2026-05-01 15:17 53.88735 28.05828 673 ft 13 kts 346°
2026-05-01 15:18 53.89458 28.04909 673 ft 138 kts 319°
2026-05-01 15:18 53.90355 28.03723 1009 ft 179 kts 333°
2026-05-01 15:19 53.92934 27.98859 3797 ft 219 kts 269°
2026-05-01 15:19 53.93953 27.94449 5816 ft 232 kts 330°
2026-05-01 15:19 53.95238 27.92545 6643 ft 260 kts 320°
2026-05-01 15:20 53.98359 27.89147 8125 ft 266 kts 333°
2026-05-01 15:20 53.99858 27.87380 8853 ft 266 kts 324°
2026-05-01 15:20 54.01231 27.85304 9612 ft 262 kts 322°
2026-05-01 15:21 54.02494 27.83115 10337 ft 262 kts 313°
2026-05-01 15:21 54.03127 27.80131 11085 ft 294 kts 279°
2026-05-01 15:21 54.02714 27.76533 11924 ft 329 kts 249°
2026-05-01 15:21 54.01413 27.73195 12759 ft 351 kts 237°
2026-05-01 15:22 53.98313 27.66288 14306 ft 387 kts 236°
2026-05-01 15:22 53.96645 27.62615 15077 ft 403 kts 236°
2026-05-01 15:22 53.94886 27.58755 15851 ft 417 kts 236°
2026-05-01 15:23 53.93090 27.54807 16632 ft 429 kts 236°
2026-05-01 15:23 53.91224 27.50715 17418 ft 440 kts 236°
2026-05-01 15:23 53.89334 27.46588 18180 ft 450 kts 236°
2026-05-01 15:23 53.87416 27.42394 18941 ft 458 kts 236°
2026-05-01 15:24 53.85425 27.38048 19697 ft 466 kts 236°
2026-05-01 15:24 53.83444 27.33730 20460 ft 472 kts 235°
2026-05-01 15:24 53.81417 27.29332 21213 ft 478 kts 235°
2026-05-01 15:24 53.79369 27.24880 21961 ft 482 kts 235°
2026-05-01 15:25 53.77309 27.20430 22707 ft 487 kts 235°
2026-05-01 15:25 53.75222 27.15920 23454 ft 490 kts 236°
2026-05-01 15:25 53.73129 27.11406 24222 ft 493 kts 235°
2026-05-01 15:25 53.71003 27.06820 25015 ft 495 kts 235°
2026-05-01 15:26 53.68890 27.02282 25810 ft 497 kts 236°
2026-05-01 15:26 53.66758 26.97706 26605 ft 497 kts 236°
2026-05-01 15:26 53.64626 26.93123 27401 ft 498 kts 236°
2026-05-01 15:26 53.62473 26.88534 28216 ft 498 kts 236°
2026-05-01 15:27 53.60308 26.83900 29032 ft 497 kts 236°
2026-05-01 15:27 53.58156 26.79325 29835 ft 496 kts 236°
2026-05-01 15:27 53.56005 26.74751 30657 ft 495 kts 236°
2026-05-01 15:28 53.51771 26.65766 32214 ft 490 kts 236°
2026-05-01 15:28 53.49664 26.61309 32994 ft 487 kts 236°
2026-05-01 15:28 53.47580 26.56904 33767 ft 484 kts 236°
2026-05-01 15:29 53.43441 26.48190 35249 ft 476 kts 236°
2026-05-01 15:29 53.41377 26.43850 35808 ft 470 kts 236°
2026-05-01 15:29 53.37372 26.35453 37033 ft 458 kts 235°
2026-05-01 15:30 53.33477 26.27315 38521 ft 443 kts 234°
2026-05-01 15:31 53.25921 26.11612 40306 ft 443 kts 233°
2026-05-01 15:31 53.22012 26.03532 40778 ft 453 kts 233°
2026-05-01 15:32 53.18047 25.95364 41547 ft 454 kts 233°
2026-05-01 15:32 53.14060 25.87162 42136 ft 458 kts 233°
2026-05-01 15:33 53.08037 25.74836 42980 ft 464 kts 233°
2026-05-01 15:34 53.01780 25.62094 43030 ft 484 kts 233°